Regional Weather Roundup
Issued by NWS Upton, NY

Current Version | Previous Version | Graphics & Text | Print | Product List | Glossary Off
Versions: 1 2 3 4 5 6 7 8 9 10 11 12 13 14 15 16 17 18 19 20 21 22 23 24 25 26 27 28 29 30

000
ASUS41 KOKX 210409
RWROKX

REGIONAL WEATHER ROUNDUP
NATIONAL WEATHER SERVICE NEW YORK NY
1100 PM EST MON NOV 20 2017

NOTE: "FAIR" INDICATES FEW OR NO CLOUDS BELOW 12,000 FEET WITH NO
SIGNIFICANT WEATHER AND/OR OBSTRUCTIONS TO VISIBILITY.

NYZ071-072-176-178-NJZ106-104-210500-
NEW YORK CITY METRO AREA

CITY           SKY/WX    TMP DP  RH WIND       PRES   REMARKS
Central Park   CLEAR     42  24  49 VRB5      30.15R
Bronx Bot Gard   N/A     43  23  45 S8        30.12F
LaGuardia APRT PTCLDY    44  25  47 SW14      30.13R
Kennedy INTL   CLEAR     42  30  62 SW17      30.15R
Breezy Point     N/A     43 N/A N/A SW10G17     N/A
Newark/Liberty PTCLDY    41  24  51 SW14      30.14R
Teterboro      CLEAR     40  24  53 SW8       30.12R WCI  34
$$

NYZ177-179-078>081-210500-
LONG ISLAND NEW YORK

CITY           SKY/WX    TMP DP  RH WIND       PRES   REMARKS
Jones Beach      N/A     45 N/A N/A W18G24      N/A
Matinecock PT    N/A     46 N/A N/A SW20        N/A
Farmingdale    CLEAR     42  25  50 SW12      30.14R
MacArthur/ISP  PTCLDY    40  26  57 SW6       30.13R
Shirley        CLEAR     40  26  57 S3        30.14R
Mt Sinai Harb    N/A    N/A N/A N/A S3          N/A
Westhampton    CLEAR     39  25  57 SW7       30.15R WCI  34
East Hampton   FAIR      39  25  58 CALM      30.14R
Southold       NOT AVBL
Montauk          N/A     45  29  53 SW8       30.14
$$

NYZ052-065-067-210500-
HUDSON VALLEY

CITY           SKY/WX    TMP DP  RH WIND       PRES   REMARKS
White Plains   CLEAR     41  22  46 W9        30.10R
Larchmont Harb   N/A     45 N/A N/A SW13        N/A
Croton On Huds   N/A     43 N/A N/A NW5         N/A
Newburgh       CLEAR     37  25  60 W8        30.09R WCI  31
Montgomery     CLEAR     33  24  69 SW6       30.07R WCI  28
Poughkeepsie   CLEAR     38  24  57 SW8       30.08R WCI  32
Albany         PTCLDY    33  27  78 CALM      30.03F
$$

NJZ001-105-106-008-010-013-015-019>022-104-210500-
NEW JERSEY

CITY           SKY/WX    TMP DP  RH WIND       PRES   REMARKS
Newark/Liberty PTCLDY    41  24  51 SW14      30.14R
Teterboro      CLEAR     40  24  53 SW8       30.12R WCI  34
Caldwell       CLEAR     39  24  55 VRB6      30.13R WCI  35
Somerville     CLEAR     30  26  85 CALM      30.13R
Linden         FAIR      41  23  48 W7        30.14S
Perth Amboy      N/A     39 N/A N/A SW8         N/A  WCI  34
Sussex         CLEAR     33  24  69 SW3       30.10R
Andover          N/A     37  23  56 S3        30.10
Trenton        CLEAR     38  24  57 S3        30.15R
Millville      PTCLDY    43  32  65 SW5       30.19S
Atlantic City  CLEAR     40  32  73 S6        30.19S
Wrightstown    CLEAR     35  26  67 SW9       30.14S WCI  28
Toms River     CLEAR     37  27  67 SW8       30.18R WCI  31
Belmar         CLEAR     38  24  57 SW7       30.17R WCI  33
$$

PAZ047>061-062-071-210500-
EASTERN PENNSYLVANIA

CITY           SKY/WX    TMP DP  RH WIND       PRES   REMARKS
Philadelphia   CLEAR     41  27  57 S8        30.17S
Allentown      CLEAR     33  23  66 CALM      30.13R
Scranton       CLEAR     37  24  59 SW3       30.06S
$$

CTZ002-004>006-009-010-012-RIZ004-006-007-MAZ004-011-015-210500-
SOUTHERN NEW ENGLAND
 IN CT

CITY           SKY/WX    TMP DP  RH WIND       PRES   REMARKS
Bradley INTL   PTCLDY    36  26  67 SE7       30.07S WCI  30
Hartford       CLEAR     41  26  55 SW7       30.09R
Danbury        CLEAR     38  24  57 W3        30.10R
Wtrbury/Oxford CLEAR     36  24  62 SW5       30.09R WCI  32
Norwalk Harbor   N/A     43 N/A N/A SW9         N/A
Bridgeport     CLEAR     42  25  50 VRB6      30.11R
Meriden        CLEAR     30  25  81 CALM      30.10R
New Haven      CLEAR     44  26  49 SW7       30.11R
Chester        FAIR      39  25  56 SW6       30.10R WCI  35
Groton         CLEAR     44  26  49 W8        30.11R
Wilimantic     CLEAR     41  25  53 SW6       30.09R

 IN RI

CITY           SKY/WX    TMP DP  RH WIND       PRES   REMARKS
Providence     PTCLDY    41  26  55 SW8       30.10R
Block Island   CLEAR     45  30  55 SW18G25   30.12R
Westerly       CLEAR     45  27  49 W8        30.12R
 IN MA

CITY           SKY/WX    TMP DP  RH WIND       PRES   REMARKS
Boston         CLOUDY    41  29  62 SW10      30.07R
Worcester      CLOUDY    34  25  69 SW7       30.02S WCI  28
Westfield      CLEAR     31  27  85 S5        30.05S WCI  26
Provincetown   CLOUDY    42  29  59 SW15      30.10
Nantucket      CLEAR     46  30  53 W17G26    30.10R
$$

ANZ330-335-338-340-345-350-353-355-210500-
COASTAL MARINE OBSERVATIONS


STATION/POSITION TIME  SKY/WX   TEMP    WIND        PRES    VSBY  WAVE
                                AIR SEA DIR/SP/G                  HT/PER
                 (UTC)          (F)     (DEG/KT/KT) (MB)    (MI)  (FT/S)
NY HARB ENTRANCE 0250            48 58  240/ 21/ 25 1019.4          3/ 3
20 S FIRE ISLAND 0250            50 57  270/ 21/ 27 1020.4          5/ 6
GREAT SOUTH BAY  0330            45 46  250/ 12/ 16   N/A
HUDSON CANYON    0250            51 59  270/ 19/ 23 1021.2          6/ 6
KINGS POINT      0336            46 51  280/ 11/ 14 1020.8
EXECUTION ROCKS  0330            46     220/ 14/ 17   N/A
WESTERN LI SOUND 0249            47     250/ 17/ 25   N/A           2/ 4
CENTRAL LI SOUND 0315            49     260/ 19/ 25   N/A           4
ROBBINS REEF     0336            43     230/ 14/ 17 1020.9
$$


>>>>>>>>>>>>>>>>>>>>>>>>>>>> KEY <<<<<<<<<<<<<<<<<<<<<<<<<<<
>                                                          <
>     SKY/WX - Sky Condition/Present Weather               <
>     TMP    - Temperature in Fahrenheit                   <
>     DP     - Dew Point in Fahrenheit                     <
>     RH     - Relative Humidity in Percent                <
>     WIND   - Direction (from) and Speed in MPH           <
>     PRES   - Mean Sea Level Pressure (inches of Hg)      <
>     WCI    - Wind Chill Index                            <
>     VSB    - VISIBILITY IN MILES                         <
>     HX     - HEAT INDEX                                  <
>     TC     - TEMPERATURE IN CELSIUS                      <
>     VRB    - VARIABLE WIND DIRECTION                     <
>                                                          <
>>>>>>>>>>>>>>>>>>>>>>>>>>>> KEY <<<<<<<<<<<<<<<<<<<<<<<<<<<




USA.gov is the U.S. government's official web portal to all federal, state and local government web resources and services.